Regional Weather Roundup
Issued by NWS Bismarck, ND

Home | Current Version | Previous Version | Text Only | Print | Product List | Glossary On
Versions: 1 2 3 4 5 6 7 8 9 10 11 12 13 14 15 16 17 18 19 20 21 22 23 24 25 26 27 28 29 30 31 32 33 34 35 36 37 38 39 40 41 42 43 44 45 46 47 48 49 50
000
ASUS43 KBIS 211620
RWRBIS

NWR BROADCAST TEXT
NATIONAL WEATHER SERVICE BISMARCK ND
1000 AM CST SUN DEC 21 2014

NOTE: "FAIR" INDICATES FEW OR NO CLOUDS BELOW 12,000 FEET WITH NO
SIGNIFICANT WEATHER AND/OR OBSTRUCTIONS TO VISIBILITY.


CITY           SKY/WX    TMP DP  RH WIND       PRES   REMARKS
WILLISTON      CLOUDY    21  18  88 CALM      29.44F
MINOT          CLEAR     18  14  84 E3        29.51F
MINOT AFB      NOT AVBL
BISMARCK       MOSUNNY   25  23  92 SE5       29.56F WCI  19
DICKINSON      SUNNY     30  24  78 S10       29.43F
GARRISON         N/A     23  21  92 CALM      29.51F
HETTINGER ARPT SUNNY     28  24  85 SE5       29.49F
JAMESTOWN      FOG       29  26  89 S7        29.62F VSB 1/4
BEACH          CLOUDY    32  28  86 S7        29.43F
CARRINGTON     PTSUNNY   21  21 100 MISG      29.61R
CROSBY         FAIR      25  23  93 S6        29.45S WCI  18
HARVEY         FAIR      19  19 100 E6        29.57F WCI  11
HAZEN          FAIR      25  23  93 NE3       29.52F
LINTON         FAIR      25  25 100 SE10      29.57F WCI  15
MANDAN         FAIR      25  23  93 S6        29.55F WCI  18
OAKES            N/A     30  30 100 SE12      29.65F FOG
RUGBY          FAIR      19  19 100 SE3       29.57S
STANLEY        FAIR      23  23 100 SE5       29.47F WCI  17
TIOGA          FAIR      18  18 100 SE7       29.48F WCI   8
WATFORD CITY   PTSUNNY   27  23  86 SE7       29.42F WCI  19
$$

CITY           SKY/WX    TMP DP  RH WIND       PRES   REMARKS
GRAND FORKS    CLOUDY    31  29  92 S17       29.68F FOG     WCI  19
GRAND FORKS AF CLOUDY    29  29 100 S14       29.68S WCI  19
DEVILS LAKE    MOSUNNY   21  14  73 SE9       29.59S WCI  11
FARGO          CLOUDY    32  28  85 S13G23    29.70F FOG
CANDO          FAIR      19  18  93 S5        29.60S WCI  13
CAVALIER       CLOUDY    27  27 100 S10G21    29.65S FOG     WCI  17
GWINNER        PTSUNNY   32  32 100 MISG      29.68F
LANGDON        FOG       23  21  93 N5        29.59S VSB<1/4 WCI  17
ROLLA          FOG       16  16 100 MISG      29.57S VSB 1/4
WALHALLA         N/A     25  25 100 S8        29.64S WCI  16
$$

CITY           SKY/WX    TMP DP  RH WIND       PRES   REMARKS
ABERDEEN       FOG       31  30  96 S13       29.67S VSB 1
MOBRIDGE       SUNNY     27  24  89 SE7       29.55F WCI  19
BUFFALO          N/A     30  23  75 SE5       29.40F
RAPID CITY     SUNNY     31  25  78 E6        29.48F
GLASGOW        CLOUDY    27  23  85 SE12      29.34F WCI  17
SIDNEY         CLOUDY    25  21  86 CALM      29.44F
WOLF POINT     PTCLDY    20  16  84 E7        29.39F WCI  11
GLENDIVE       CLOUDY    28  25  86 SW6       29.41F
MILES CITY     CLOUDY    30  25  81 SE8       29.41S
BAKER          CLOUDY    28  26  92 E8        29.43F WCI  20
$$

CITY           SKY/WX    TMP DP  RH WIND       PRES   REMARKS
BILLINGS       CLOUDY    41  25  53 SW17      29.42S
GREAT FALLS    MOCLDY    42  32  67 SW17      29.34R
ESTEVAN        PTCLDY    19  18  93 E8        29.45F WCI   9
$$




USA.gov is the U.S. government's official web portal to all federal, state and local government web resources and services.